Regional Weather Roundup
Issued by NWS Jackson, KY

Home | Current Version | Previous Version | Graphics & Text | Print | Product List | Glossary On
Versions: 1 2 3 4 5 6 7 8 9 10 11 12 13 14 15 16 17 18 19 20 21 22 23 24 25 26 27 28 29 30 31 32 33 34 35 36 37 38 39 40 41 42 43 44 45 46 47 48 49 50
000
ASUS43 KJKL 270310
RWRJKL

EAST KENTUCKY HOURLY WEATHER ROUNDUP
NATIONAL WEATHER SERVICE JACKSON KY
1100 PM EDT TUE MAY 26 2015

NOTE: "FAIR" INDICATES FEW OR NO CLOUDS BELOW 12,000 FEET WITH
NO SIGNIFICANT WEATHER AND/OR OBSTRUCTIONS TO VISIBILITY.

* THESE REPORTS ARE NOT UNDER NWS QUALITY CONTROL AND MAY NOT
  REPORT WEATHER SUCH AS PRECIPITATION AND FOG.

KYZ079-080-083-085-087-088-110-112-115-119-120-270400
...EASTERN KENTUCKY...

CITY           SKY/WX    TMP DP  RH WIND       PRES   REMARKS
JACKSON        LGT RAIN  66  63  90 CALM      30.14F
LONDON         CLOUDY    67  63  87 SE3       30.14R
SOMERSET*      CLOUDY    66  66 100 S3        30.13S
MONTICELLO*    CLOUDY    70  68  93 S8        30.15R
MIDDLESBORO*   CLOUDY    71  67  87 SW13G21   30.17S
HARLAN APT*    CLOUDY    68  66  94 CALM      30.18S
HAZARD APT*    MOCLDY    68  68 100 SW3       30.15F
BLACK MTN*       N/A     61  61 100 S9          N/A
PIKEVILLE APT* CLOUDY    66  66 100 SW6       30.16R
BIG SANDY*     CLOUDY    73  64  75 W13G26    30.15R
MOREHEAD APT*  CLOUDY    66  64  94 SE3       30.12F
$$

KYZ035-036-041-042-044-050-067-078-099-270400
...CENTRAL KENTUCKY...

CITY           SKY/WX    TMP DP  RH WIND       PRES   REMARKS
MT STERLING*   CLOUDY    64  64 100 SW5       30.11F
FLEMING/MASON* MOCLDY    64  64 100 S9        30.09S
DANVILLE*      CLOUDY    64  64 100 SW5       30.11S
RICHMOND*      CLOUDY    68  64  88 S8        30.10S
LEXINGTON      CLOUDY    67  64  90 S12       30.09R
FRANKFORT      CLOUDY    66  64  93 S8        30.06R
$$

KYZ091>093-OHZ055-061-077-WVZ005-015-034-035-042-270400
...SOUTHERN OHIO/WEST VIRGINIA...

CITY           SKY/WX    TMP DP  RH WIND       PRES   REMARKS
COVINGTON      CLOUDY    67  65  93 S8        30.04R
COLUMBUS       CLOUDY    68  66  93 SE8       30.03R
DAYTON         CLOUDY    71  67  87 SW14      30.02R
WILMINGTON     CLOUDY    67  64  90 S12       30.03R
HUNTINGTON     CLOUDY    72  64  76 MISG      30.10R
CHARLESTON     CLOUDY    71  67  87 CALM      30.08F
PINEVILLE*     MOCLDY    66  66 100 MISG      30.21S FOG
BECKLEY        MOCLDY    70  61  73 S10G17    30.20R
BLUEFIELD      MOCLDY    73  60  63 S9G20     30.25R
$$

VAZ002-007-008-TNZ017-027-036-066-071-270400
...SOUTHWEST VIRGINIA/EAST TENNESSEE...

CITY           SKY/WX    TMP DP  RH WIND       PRES   REMARKS
WISE*          MOCLDY    72  57  60 S8        30.23R
JONESVILLE*    MOCLDY    70  68  94 CALM      30.21R
ABINGDON*      CLOUDY    75  63  64 SW6       30.22R
BRISTOL        CLOUDY    76  63  64 S5        30.19R
KNOXVILLE      CLOUDY    72  61  68 SW6       30.17R
OAK RIDGE      CLOUDY    71  68  90 VRB5      30.19R
CROSSVILLE     CLOUDY    69  65  86 S7        30.19R
NASHVILLE      PTCLDY    69  67  93 S6        30.11R
$$

...KEY TO REMARKS...
VSB - VISIBILITY IN MILES
WCI - WIND CHILL INDEX
HX  - HEAT INDEX

$$


USA.gov is the U.S. government's official web portal to all federal, state and local government web resources and services.